Location: Newark
(51.0000°N, 11.4100°E)
Time: 18:39:27
(UTC+00:00)

A-11 Canister half - Visible Passes

Search period start: 15 November 2019 00:00
Search period end: 25 November 2019 00:00
Orbit: 1514 x 1686 km, 47.2° (Epoch: 13 November)

Date Brightness Start Highest point End Pass type
(mag) Time Alt. Az. Time Alt. Az. Time Alt. Az.
15 Nov 9.7 17:34:20 10° SSW 17:43:21 39° SE 17:47:00 30° ESE visible
15 Nov 9.4 19:37:21 10° WSW 19:45:12 55° SW 19:45:12 55° SW visible
15 Nov 11.0 21:42:00 10° W 21:43:25 15° W 21:43:25 15° W visible
16 Nov 9.8 17:11:35 10° SSW 17:20:29 37° SE 17:25:26 24° E visible
16 Nov 9.2 19:14:27 10° WSW 19:23:39 64° S 19:23:39 64° S visible
16 Nov 10.7 21:19:03 10° W 21:21:50 22° W 21:21:50 22° W visible
17 Nov 9.9 16:48:52 10° SSW 16:57:37 35° SE 17:03:50 19° E visible
17 Nov 9.1 18:51:34 10° WSW 19:01:33 65° SSE 19:02:02 64° SSE visible
17 Nov 10.4 20:56:07 10° W 21:00:14 29° W 21:00:14 29° W visible
18 Nov 9.9 16:26:09 10° SSW 16:34:46 34° SE 16:42:12 14° E visible
18 Nov 9.1 18:28:40 10° WSW 18:38:37 63° SSE 18:40:24 56° ESE visible
18 Nov 10.1 20:33:09 10° W 20:38:35 37° W 20:38:35 37° W visible
19 Nov 10.0 16:03:28 10° SSW 16:11:55 32° SE 16:20:27 10° E visible
19 Nov 9.2 18:05:47 10° WSW 18:15:41 62° SSE 18:18:44 46° ESE visible
19 Nov 9.7 20:10:13 10° W 20:16:56 47° WSW 20:16:56 47° WSW visible
19 Nov 11.3 22:15:06 10° W 22:15:07 10° W 22:15:07 10° W visible
20 Nov 10.1 15:40:48 10° SSW 15:49:04 30° SE 15:57:26 10° E visible
20 Nov 9.3 17:42:54 10° SW 17:52:46 61° SSE 17:57:02 37° E visible
20 Nov 9.4 19:47:16 10° W 19:55:15 58° WSW 19:55:15 58° WSW visible
20 Nov 11.0 21:52:08 10° W 21:53:26 15° W 21:53:26 15° W visible
21 Nov 9.3 17:20:02 10° SW 17:29:51 59° SSE 17:35:21 29° E visible
21 Nov 9.1 19:24:20 10° W 19:33:33 69° SW 19:33:33 69° SW visible
21 Nov 10.8 21:29:11 10° W 21:31:44 20° W 21:31:44 20° W visible
22 Nov 9.4 16:57:10 10° SW 17:06:56 58° SSE 17:13:39 23° E visible
22 Nov 9.0 19:01:24 10° W 19:11:31 73° S 19:11:50 72° SSE visible
22 Nov 10.5 21:06:14 10° W 21:10:02 26° W 21:10:02 26° W visible
23 Nov 9.5 16:34:19 10° SW 16:44:01 56° SSE 16:51:56 17° E visible
23 Nov 9.0 18:38:28 10° W 18:48:34 73° S 18:50:08 64° SE visible
23 Nov 10.2 20:43:17 10° W 20:48:19 33° W 20:48:19 33° W visible
24 Nov 9.5 16:11:29 10° SW 16:21:07 54° SSE 16:30:14 12° E visible
24 Nov 9.1 18:15:32 10° W 18:25:37 73° S 18:28:25 53° ESE visible
24 Nov 9.9 20:20:19 10° W 20:26:36 41° WSW 20:26:36 41° WSW visible
